TimeGMT,TemperatureF,Dew PointF,Humidity,Sea Level PressureIn,VisibilityMPH,Wind Direction,Wind SpeedMPH,Gust SpeedMPH,PrecipitationIn,Events,Conditions,WindDirDegrees,DateUTC
2:50 AM,44,42,89,29.52,7,SSW,9.2,,,,Partly Cloudy,210,2012-12-17 02:50:00
5:50 AM,43,40,86,29.52,19,South,9.2,,,Rain,Rain,190,2012-12-17 05:50:00
7:20 AM,42.8,41.0,93,29.53,6.2,SW,5.8,-,N/A,Rain,Light Rain,230,2012-12-17 07:20:00
7:50 AM,42.8,41.0,93,29.53,6.2,SW,6.9,-,N/A,,Partly Cloudy,230,2012-12-17 07:50:00
8:20 AM,42.8,41.0,93,29.53,6.2,SW,6.9,-,N/A,,Partly Cloudy,230,2012-12-17 08:20:00
8:50 AM,43,41,91,29.55,11,WSW,9.2,,,,Mostly Cloudy,240,2012-12-17 08:50:00
8:50 AM,42.8,41.0,93,29.53,6.2,WSW,6.9,-,N/A,,Partly Cloudy,250,2012-12-17 08:50:00
9:20 AM,42.8,41.0,93,29.53,6.2,WSW,5.8,-,N/A,,Partly Cloudy,240,2012-12-17 09:20:00
9:50 AM,44.6,42.8,93,29.56,6.2,WSW,8.1,-,N/A,,Partly Cloudy,240,2012-12-17 09:50:00
10:20 AM,46.4,42.8,87,29.56,6.2,WSW,9.2,-,N/A,,Partly Cloudy,250,2012-12-17 10:20:00
10:50 AM,46.4,42.8,87,29.56,6.2,West,9.2,-,N/A,,Partly Cloudy,260,2012-12-17 10:50:00
11:20 AM,46.4,42.8,87,29.56,6.2,WSW,12.7,-,N/A,,Partly Cloudy,250,2012-12-17 11:20:00
11:50 AM,47,41,72,29.59,18,West,13.8,,,,,260,2012-12-17 11:50:00
11:50 AM,46.4,41.0,81,29.56,6.2,WSW,12.7,-,N/A,,Partly Cloudy,250,2012-12-17 11:50:00
12:20 PM,48.2,41.0,76,29.56,6.2,West,15.0,-,N/A,,Partly Cloudy,260,2012-12-17 12:20:00
12:50 PM,48.2,42.8,82,29.59,6.2,West,15.0,-,N/A,,Partly Cloudy,260,2012-12-17 12:50:00
1:20 PM,48.2,42.8,82,29.59,6.2,West,16.1,-,N/A,,Partly Cloudy,260,2012-12-17 13:20:00
1:50 PM,48.2,42.8,82,29.59,6.2,West,11.5,-,N/A,,Partly Cloudy,260,2012-12-17 13:50:00
2:20 PM,48.2,42.8,82,29.59,6.2,West,11.5,-,N/A,,Partly Cloudy,260,2012-12-17 14:20:00
2:50 PM,46,40,72,29.63,11,WSW,10.4,,,,Scattered Clouds,250,2012-12-17 14:50:00
2:50 PM,46.4,41.0,81,29.62,6.2,WSW,8.1,-,N/A,,Partly Cloudy,250,2012-12-17 14:50:00
3:20 PM,44.6,41.0,87,29.62,6.2,SW,6.9,-,N/A,,Partly Cloudy,230,2012-12-17 15:20:00
3:50 PM,44.6,39.2,81,29.62,6.2,WSW,5.8,-,N/A,,Partly Cloudy,250,2012-12-17 15:50:00
4:20 PM,42.8,39.2,87,29.65,6.2,WSW,6.9,-,N/A,,Partly Cloudy,250,2012-12-17 16:20:00
4:50 PM,42.8,39.2,87,29.65,-9999.0,West,8.1,-,N/A,,Clear,260,2012-12-17 16:50:00
5:20 PM,42.8,39.2,87,29.65,-9999.0,WSW,6.9,-,N/A,,Clear,250,2012-12-17 17:20:00
5:50 PM,40,36,82,29.68,10,SW,8.1,,,,,220,2012-12-17 17:50:00
5:50 PM,41.0,37.4,87,29.65,-9999.0,SW,4.6,-,N/A,,Clear,230,2012-12-17 17:50:00
6:20 PM,41.0,37.4,87,29.68,-9999.0,WSW,5.8,-,N/A,,Clear,240,2012-12-17 18:20:00
6:50 PM,41.0,37.4,87,29.68,-9999.0,WSW,5.8,-,N/A,,Clear,240,2012-12-17 18:50:00
7:20 PM,39.2,37.4,93,29.68,-9999.0,SW,5.8,-,N/A,,Clear,220,2012-12-17 19:20:00
7:50 PM,41.0,37.4,87,29.68,-9999.0,WSW,6.9,-,N/A,,Clear,240,2012-12-17 19:50:00
8:20 PM,41.0,37.4,87,29.68,-9999.0,SW,8.1,-,N/A,,Clear,230,2012-12-17 20:20:00
8:50 PM,42,38,82,29.70,10,SW,11.5,,,Rain,Rain,230,2012-12-17 20:50:00
8:50 PM,42.8,39.2,87,29.68,-9999.0,WSW,6.9,-,N/A,,Clear,240,2012-12-17 20:50:00
9:20 PM,42.8,39.2,87,29.68,-9999.0,WSW,8.1,-,N/A,,Clear,240,2012-12-17 21:20:00
9:50 PM,42.8,39.2,87,29.68,6.2,WSW,6.9,-,N/A,,Scattered Clouds,240,2012-12-17 21:50:00